User: anonymous   Login
Location: Marseilles
(40.7010°N, 83.3930°W)
Time: 23:00:05
(UTC-04:00)
Language:

Cosmos 1459 Rocket - Orbit

View from above orbital plane
View from above orbital plane
View from above satellite
View from above satellite

Ground track
Ground track

The orbit data is extracted from the following two-line orbital elements,

1 14059U 83042B   16149.91413529 +.00000130 +00000-0 +11274-3 0  9993
2 14059 082.9709 347.1444 0041188 265.9767 205.2150 13.78557095662545
Epoch (UTC): 28 May 2016 21:56:21
Eccentricity: 0.0041188
inclination: 82.9709°
perigee height: 939 km
apogee height: 999 km
right ascension of ascending node: 347.1444°
argument of perigee: 265.9767°
revolutions per day: 13.78557095
mean anomaly at epoch: 205.2150°
orbit number at epoch: 66254

The dashed part of the orbit path shows where the satellite is in the earth's shadow,  

DLR